Notices

What's New in latest Release from April 7th, 2021:

- Updated Glossary, including Speed of Maximum Gust, and Total Hourly Precipitation

- Updated national and regional climate services offices contacts and prices information

- Addition of station inventory lists for 1981-2010, 1971-2000, and 1961-1990 Normals.

If you haven't already, please take our survey and provide feedback about our website: https://eccc.sondage-survey.ca/f/LanguageSelection.aspx?s=442ca660-fcf1-47c0-95a9-59707d6fd709

Hourly Data Report for October 19, 2003

TORONTO CITY
ONTARIO

43°40'00.000" N
79°24'00.000" W
112.50 m
6158355
71508
XTO

Download Data

Hourly Data (October 2003)
Hourly Data Report for October 19, 2003
TIME
LST
Temp Definition
°C
Dew Point Definition
°C
Rel Hum Definition
%
Precip. Amount Definition
mm

Wind Dir Definition
10's deg

Wind Spd Definition
km/h
Visibility Definition
km
Stn Press Definition
kPa
Hmdx Definition


Wind Chill Definition


Weather Definition


00:00 7.7 7.2 97   LegendMM LegendMM LegendMM 99.61     LegendNANA
01:00
02:00 7.7 7.1 96   LegendMM LegendMM LegendMM 99.58     LegendNANA
03:00 7.5 6.8 95   LegendMM LegendMM LegendMM 99.58     LegendNANA
04:00 7.5 6.8 95   LegendMM LegendMM LegendMM 99.67     LegendNANA
05:00 7.4 6.8 96   LegendMM LegendMM LegendMM 99.82     LegendNANA
06:00 6.5 5.4 93   LegendMM LegendMM LegendMM 99.97     LegendNANA
07:00 6.0 4.7 91   LegendMM LegendMM LegendMM 100.13     LegendNANA
08:00 5.8 4.4 91   LegendMM LegendMM LegendMM 100.24     LegendNANA
09:00 6.1 4.1 87   LegendMM LegendMM LegendMM 100.32     LegendNANA
10:00 6.0 3.0 81   LegendMM LegendMM LegendMM 100.43     LegendNANA
11:00 6.7 3.1 78   LegendMM LegendMM LegendMM 100.49     LegendNANA
12:00 7.5 3.2 74   LegendMM LegendMM LegendMM 100.54     LegendNANA
13:00 7.5 3.5 76   LegendMM LegendMM LegendMM 100.54     LegendNANA
14:00 7.8 3.7 75   LegendMM LegendMM LegendMM 100.54     LegendNANA
15:00 8.1 3.7 74   LegendMM LegendMM LegendMM 100.55     LegendNANA
16:00 7.8 3.6 75   LegendMM LegendMM LegendMM 100.58     LegendNANA
17:00 7.7 4.0 77   LegendMM LegendMM LegendMM 100.59     LegendNANA
18:00 7.0 4.6 85   LegendMM LegendMM LegendMM 100.64     LegendNANA
19:00
20:00 6.2 4.1 86   LegendMM LegendMM LegendMM 100.70     LegendNANA
21:00 5.7 3.7 87   LegendMM LegendMM LegendMM 100.71     LegendNANA
22:00 5.8 3.5 85   LegendMM LegendMM LegendMM 100.66     LegendNANA
23:00 6.6 2.9 77   LegendMM LegendMM LegendMM 100.67     LegendNANA

Notes on Data Quality.

Legend

  • E = Estimated
  • M = Missing
  • NA = Not Available*
  • [empty] = Indicates an unobserved value
Date modified: